Welcome to the New NWS' Forecast!
Most changes are behind the scenes, but click here for differences you might notice.

Regional Weather Roundup (RWR)

Issued by National Weather Service (NWS)

                            
835 
ASUS42 KTBW 222317
RWRFL 
FLORIDA REGIONAL WEATHER ROUNDUP
NATIONAL WEATHER SERVICE TAMPA BAY RUSKIN FL
700 PM EDT SAT SEP 22 2018

NOTE: "FAIR" INDICATES FEW OR NO CLOUDS BELOW 12,000 FEET WITH NO
SIGNIFICANT WEATHER AND/OR OBSTRUCTIONS TO VISIBILITY.

FLZ001>010-012>015-112-114-115-230000-
PANHANDLE FLORIDA
  
CITY           SKY/WX    TMP DP  RH WIND       PRES   REMARKS
PENSACOLA      FAIR      85  71  63 S8        29.97R                  
PENSACOLA NAS  PTCLDY    86  74  67 S9        29.97R                  
MILTON NAS     MOCLDY    79  74  84 CALM      29.98                   
CRESTVIEW      FAIR      85  72  65 S3        29.99R                  
DUKE FIELD     FAIR      86  68  55 S10       29.98R                  
VALPARAISO     PTCLDY    86  72  62 S7        29.98R                  
MARY ESTHER    PTCLDY    85  68  55 S6        29.97R                  
PANAMA CITY    FAIR      80  71  74 W6        29.98R                  
TYNDALL AFB    FAIR      80  74  81 CALM      29.98S                  
APALACHICOLA   FAIR      85  73  67 SE5       29.97S                  

STATION/POSITION SKY/WX   TEMP    WIND        PRES    WAVE   SWELL
                          AIR SEA DIR/SP/G            HT/PER HT/PER
                          (F)     (DEG/KT/KT) (MB)    (FT/S) (FT/S)
30.1N   87.6W              85     140/ 10/ 12 1014.9
29.2N   88.2W                 87  130/  8/ 10 1014.6R   2/ 4   2/ 4
28.8N   86.0W              82 86  120/ 17/ 19   N/A     3/ 5
PANAMA CITY BEAC           83 88  140/  3/  5 1015.8R
TOWER C                    83     120/  6/  8 1015.3F

$$
FLZ011-016>038-118-127-128-134-139-239-230000-
NORTH FLORIDA
  
CITY           SKY/WX    TMP DP  RH WIND       PRES   REMARKS
MARIANNA       FAIR      89  68  49 E5        29.96S                  
TALLAHASSEE    FAIR      88  68  51 E9        29.97S                  
PERRY          FAIR      87  68  52 NE3       29.98R                  
LIVE OAK       CLOUDY    84  72  65 NE5       29.99R                  
CROSS CITY     MOCLDY    85  73  66 E7        29.98R                  
LAKE CITY      CLOUDY    81  70  69 CALM      30.00S                  
GAINESVILLE    CLOUDY    83  72  69 E6        30.02R                  
PALATKA        FAIR      82  73  74 E9        30.01R                  
MAYPORT NAS    FAIR      83  72  69 E12       30.01S                  
JACKSONVILLE   FAIR      83  72  69 E9        30.00S                  
JAX NAS        FAIR      84  72  67 E14       30.01S                  
JAX CECIL      MOCLDY    84  70  61 E7        30.00S                  
ST AUGUSTINE   FAIR      82  71  69 E13       30.02R                  
PALM COAST     CLEAR     82  72  69 E9        30.00S                  

STATION/POSITION SKY/WX   TEMP    WIND        PRES    WAVE   SWELL
                          AIR SEA DIR/SP/G            HT/PER HT/PER
                          (F)     (DEG/KT/KT) (MB)    (FT/S) (FT/S)
SHELL POINT      NOT AVBL
KEATON BEACH               85     310/  5/  8 1015.0R
CEDAR KEY                  86      50/  6/  7 1015.1R
FERNANDINA                 85 85  100/  3/  9 1017.3R
30.7N   81.3W                 85                N/A     3/10   2/11
MAYPORT                    83 85   80/  8/ 12 1016.8S
31.4N   80.9W              82 84   70/ 12/ 16 1016.8S   3/11   2/11
ST AUGUSTINE               82 83   90/ 11/ 13 1016.5R

$$
FLZ040-043>046-052-053-057-058-063-144-230000-
INTERIOR CENTRAL FLORIDA
  
CITY           SKY/WX    TMP DP  RH WIND       PRES   REMARKS
OCALA          FAIR      84  70  62 CALM      29.99R                  
LEESBURG       FAIR      85  72  65 E10       29.99S                  
SANFORD        FAIR      83  70  64 E9        29.99S                  
ORLANDO EXEC   FAIR      84  71  65 E13       29.99S                  
ORLANDO INTL   MOCLDY    84  71  65 E12       29.99S                  
KISSIMMEE      FAIR      84  70  62 E12       29.99S                  
WINTER HAVEN   FAIR      85  69  58 E9        29.99S                  
LAKELAND       PTCLDY    86  68  54 E10       29.97S                  
BARTOW         FAIR      84  68  58 E9        29.98R                  
SEBRING        FAIR      78  74  86 E3        29.99R                  
OKEECHOBEE       N/A     77  75  94 CALM      29.97R                  

$$
FLZ041-047-054-059-064-141-147-230000-
EAST CENTRAL FLORIDA
  
CITY           SKY/WX    TMP DP  RH WIND       PRES   REMARKS
ORMOND BEACH   PTCLDY    82  72  69 SE5       30.00S                  
DAYTONA BEACH  FAIR      82  73  74 E7        30.00S                  
DELAND         FAIR      82  72  69 E10       29.99F                  
NEW SMYRNA BEA PTCLDY    84  72  65 E9        30.01S                  
JFK SPACE CTR  FAIR      82  72  72 E6        29.99S                  
TITUSVILLE     PTCLDY    86  72  62 E7        30.00S                  
CAPE CANAVERAL FAIR      83  71  67 E9        29.98S                  
PATRICK AFB    FAIR      81  78  90 E10       29.98F                  
MELBOURNE      FAIR      83  73  72 E12       29.98F                  
VERO BEACH     FAIR      79  73  82 E10       29.99S                  
FT PIERCE      FAIR      80  75  84 E12       29.98R                  
STUART         MOCLDY    84  75  74 E9        29.98                   

STATION/POSITION SKY/WX   TEMP    WIND        PRES    WAVE   SWELL
                          AIR SEA DIR/SP/G            HT/PER HT/PER
                          (F)     (DEG/KT/KT) (MB)    (FT/S) (FT/S)
28.5N   80.2W              83      90/ 10/ 12 1015.7S   3/10   3/10
28.9N   78.5W              83 85   80/ 14/ 17 1016.1S
TRIDENT PIER               83 86   90/  8/ 12 1017.1F
28.4N   80.5W                 86                N/A     2/10
27.5N   80.2W                 84                N/A     5/10   2/11

$$
FLZ050-056-061-142-242-148-248-149-249-151-251-155-255-
160-260-230000-
WEST CENTRAL FLORIDA
  
CITY           SKY/WX    TMP DP  RH WIND       PRES   REMARKS
CRYSTAL RIVER  FAIR      84  72  65 SE3       29.97R                  
BROOKSVILLE    MOCLDY    83  72  69 E6        29.97S                  
CLEARWATER AIR FAIR      86  68  54 SE7       29.96R                  
ST PETE CLEARW FAIR      86  69  56 E9        29.96R                  
TAMPA INTL     MOCLDY    90  68  48 E9        29.96S                  
TAMPA EXEC     FAIR      86  70  58 E6        29.97R                  
PLANT CITY     FAIR      88  68  51 E7        29.99R                  
MACDILL AFB    FAIR      86  69  56 E9        29.96R                  
PETER O KNIGHT CLOUDY    86  70  58 E8        29.96R                  
ST PETERSBURG  FAIR      87  70  56 E14       29.95R                  
SARASOTA       FAIR      86  71  60 E8        29.94R                  
VENICE         MOCLDY    79  75  89 E15       29.98R THUNDER          

STATION/POSITION SKY/WX   TEMP    WIND        PRES    WAVE   SWELL
                          AIR SEA DIR/SP/G            HT/PER HT/PER
                          (F)     (DEG/KT/KT) (MB)    (FT/S) (FT/S)
CLEARWATER BEACH           88 88  110/  7/ 11 1014.5R
MIDDLE TAMPA BAY           87     110/ 10/ 13 1014.5R
VENICE                     77 85  100/  9/ 12   N/A

$$
FLZ066-069-070-075>078-162-262-165-265-230000-
SOUTHWEST FLORIDA AND KEYS
  
CITY           SKY/WX    TMP DP  RH WIND       PRES   REMARKS
PUNTA GORDA    FAIR      80  73  79 N5        29.98R                  
FT MYERS       TSTM      78  75  90 NE5       29.95R                  
SOUTHWEST INTL HVY RAIN  78  76  93 S14       29.96R FOG              
NAPLES         FAIR      81  76  84 E6        29.94S                  
MARCO ISLAND   FAIR      80  76  87 MISG      29.95S                  
IMMOKALEE        N/A     77  75  94 CALM      29.96S                  
MARATHON       FAIR      85  75  72 E7        29.93R                  
KEY WEST NAS   MOCLDY    83  73  72 E9        29.93S                  
KEY WEST INTL  FAIR      84  74  71 E7        29.93R                  

STATION/POSITION SKY/WX   TEMP    WIND        PRES    WAVE   SWELL
                          AIR SEA DIR/SP/G            HT/PER HT/PER
                          (F)     (DEG/KT/KT) (MB)    (FT/S) (FT/S)
NAPLES                     81 88  110/  4/  5 1014.0S
26.0N   85.6W              81 85   10/  2/  6 1013.7R   2/ 4   2/ 4
DRY TORTUGAS               84      80/ 10/ 12 1013.7R
SAND KEY                   83                 1013.4R
SOMBRERO KEY               84      60/ 10/ 13 1012.7S
LONG KEY                   85 88  110/ 10/ 11 1013.6R
MOLASSES REEF              84 87   90/  9/ 10 1014.0R

$$
FLZ067-068-071>074-168-172>174-230000-
SOUTHEAST FLORIDA 
  
CITY           SKY/WX    TMP DP  RH WIND       PRES   REMARKS
W PALM BEACH   MOCLDY    84  72  67 E12       29.97R                  
BOCA RATON     CLEAR     84  72  65 E9        29.96R                  
FT LAUDER-EXEC FAIR      84  75  74 E12       29.95R                  
FT LAUDERDALE  MOCLDY    83  76  79 E12       29.95R                  
POMPANO BEACH  FAIR      84  75  74 E7        29.96R                  
PEMBROKE PINES FAIR      85  74  69 E10       29.97R                  
OPA LOCKA      FAIR      83  75  77 E12       29.96R                  
MIAMI          MOCLDY    83  74  74 NE7       29.95R                  
WEST KENDALL   FAIR      84  74  71 E8        29.95R                  
HOMESTEAD      PTCLDY    83  76  80 NE3       29.93S                  

STATION/POSITION SKY/WX   TEMP    WIND        PRES    WAVE   SWELL
                          AIR SEA DIR/SP/G            HT/PER HT/PER
                          (F)     (DEG/KT/KT) (MB)    (FT/S) (FT/S)
PORT EVERGLADES            84      90/  5/ 10 1014.2
VIRGINIA KEY               84 89   30/  6/  9 1013.8R
LAKE WORTH                 83 87   80/  7/ 10 1015.8R
FOWEY ROCKS                83 85   90/ 10/ 11 1014.6F
SETTLEMENT POINT           81      90/ 14/ 17 1015.1R

$$